Theta_e
313 313 313 313 313 313 314 314 314 313 313 313 313 313 313 312 312 311 310 311 311 311 311 311 311 311 314 317 318 319 316 318 323 326 326 324 319 319 315 315 316 317 323 327 331 331 328 328 326 327 329 331 330 330 336 338 339 342 344 336 327 332 336 338 343 342 344 349 355 361 362 362 364 362 357 353 355 359 359 359 358 356 356 355 357 356 356 356
314 313 314 314 314 314 314 314 314 314 313 313 312 312 313 313 313 311 310 310 311 311 311 311 310 311 315 317 318 317 317 321 327 331 328 325 321 319 315 315 316 315 321 327 329 327 327 327 326 326 326 329 329 330 334 336 338 340 339 333 330 336 338 342 344 344 347 351 355 360 362 362 362 360 356 358 361 359 361 363 361 360 358 356 358 357 357 357
314 314 314 314 315 315 315 315 315 314 313 313 312 312 312 312 313 312 310 310 311 311 311 311 310 312 315 318 319 316 320 327 332 332 329 325 322 319 316 316 317 315 319 326 326 327 327 327 326 325 326 329 330 330 329 332 337 337 336 333 333 335 338 344 346 346 349 352 359 358 360 363 360 359 357 361 362 360 363 364 363 364 360 356 357 357 358 357
315 315 315 315 315 315 316 315 315 315 313 313 313 313 312 312 313 312 310 310 311 311 310 310 311 312 315 319 318 318 325 334 330 332 330 324 322 319 317 318 318 316 319 323 324 325 325 325 325 324 327 330 329 329 327 329 333 332 335 332 331 333 335 344 347 347 350 354 359 357 360 363 359 359 359 362 363 361 362 361 362 363 361 356 355 357 359 358
314 315 315 315 314 315 316 316 316 314 313 314 313 313 312 312 313 312 310 310 311 311 310 310 311 313 317 318 318 322 330 331 325 334 329 322 321 318 318 317 316 316 319 322 323 323 324 324 324 325 328 331 330 328 327 328 328 329 333 330 330 332 332 342 347 349 353 356 360 358 361 362 360 361 360 363 363 360 359 357 358 359 358 356 355 357 359 358
314 315 315 315 315 316 316 317 315 314 315 314 314 313 312 312 312 312 310 310 311 311 310 311 311 314 317 318 321 326 333 323 325 333 326 321 319 319 319 318 317 318 321 322 323 323 322 323 324 328 329 331 330 327 327 326 326 329 331 329 329 329 331 342 348 352 354 357 360 359 361 361 361 363 361 362 363 358 354 354 354 355 357 356 357 357 356 355
314 315 315 315 316 317 317 316 315 314 316 316 315 315 313 313 312 311 310 311 311 310 311 311 312 316 317 321 325 327 330 322 327 329 325 322 319 320 320 321 321 321 322 322 323 322 322 324 326 330 331 330 328 326 326 326 326 328 331 330 328 326 334 342 347 354 355 359 363 361 360 360 362 364 363 362 360 357 352 352 354 355 357 356 355 354 354 355
315 315 316 315 316 318 318 316 315 315 317 318 318 316 315 313 311 311 311 311 311 311 311 310 314 317 317 324 330 328 323 327 330 328 326 322 320 321 322 323 323 322 323 323 322 322 322 325 329 330 331 330 328 327 326 326 327 328 330 328 327 326 335 345 349 354 357 363 365 361 361 361 362 365 365 361 356 355 353 352 355 354 354 355 353 353 354 355
315 315 316 316 315 317 319 318 316 316 318 320 320 319 317 313 311 311 310 311 311 311 311 311 316 317 317 325 330 322 325 330 329 328 327 323 321 322 323 324 324 323 323 323 322 322 322 327 330 329 330 328 326 326 325 326 327 328 327 325 328 325 335 349 354 359 361 364 363 361 363 364 362 363 364 361 355 353 354 353 356 355 353 354 353 353 354 354
316 316 316 316 315 317 320 320 318 317 319 321 321 320 318 314 312 311 311 311 311 311 311 313 317 317 321 328 327 321 328 330 329 328 327 325 322 323 325 325 325 324 323 323 322 322 324 327 328 326 328 328 326 326 325 326 325 326 325 325 328 326 338 349 352 360 361 363 364 361 364 366 364 361 359 358 356 354 354 356 358 358 356 354 353 353 355 356
316 316 316 317 316 316 320 321 319 319 320 322 321 321 319 316 312 311 312 312 311 311 311 315 317 318 326 329 323 323 327 329 330 328 328 327 325 325 327 325 325 325 322 322 322 323 324 326 327 326 328 327 326 327 326 326 325 325 325 326 328 328 344 351 354 359 361 364 362 361 364 368 365 361 361 358 355 356 354 357 360 359 357 355 354 353 355 357
316 317 317 317 316 316 319 321 321 320 321 322 322 321 320 316 313 312 312 312 312 312 312 316 316 319 328 328 320 325 323 325 329 329 329 328 327 327 327 326 325 324 322 321 321 323 324 325 326 327 328 326 326 327 325 325 324 325 325 328 329 331 346 352 356 358 361 363 362 362 358 364 371 362 363 361 355 358 356 358 360 359 357 355 355 353 354 357
317 317 317 317 316 316 318 320 321 321 322 323 322 321 320 316 313 312 313 313 313 314 315 317 316 320 328 327 321 323 321 325 326 328 329 328 328 326 325 326 325 324 322 321 323 323 323 324 326 326 327 326 327 327 325 325 324 325 329 331 329 329 339 350 356 356 361 361 364 361 336 340 368 362 362 363 357 360 357 359 360 357 358 355 355 354 353 357
317 317 317 317 317 316 317 320 321 321 323 323 322 321 319 316 314 313 314 315 315 315 315 315 317 324 330 324 323 322 322 326 325 328 328 327 328 327 326 325 325 324 321 322 325 325 325 326 326 326 326 325 327 325 325 325 324 327 329 331 329 322 327 346 351 350 362 360 364 359 328 330 359 360 363 363 358 361 358 359 359 357 359 356 356 354 353 356
318 318 318 317 317 316 318 320 320 320 322 323 322 320 318 315 314 314 314 316 316 315 316 318 320 327 330 322 327 324 323 327 329 330 329 328 328 328 329 327 325 325 323 323 325 326 327 326 326 326 326 325 326 325 325 325 326 329 322 320 325 319 322 342 344 343 354 355 362 354 328 332 356 358 362 364 360 363 359 358 359 358 359 357 357 355 353 355
319 318 317 317 316 317 319 320 319 319 322 323 321 319 316 315 314 315 316 316 317 316 321 327 327 328 328 324 327 325 325 328 329 329 328 329 329 328 330 329 328 327 325 326 326 327 327 327 325 324 326 325 325 324 324 321 322 328 321 313 318 317 319 331 339 343 346 346 356 352 334 335 352 356 359 364 363 364 362 360 360 360 359 358 358 355 354 354
319 318 318 317 316 318 319 319 318 319 322 322 320 317 315 315 315 315 316 317 319 320 324 331 329 328 327 323 324 323 327 327 326 328 328 328 329 329 330 328 329 327 328 328 327 327 326 326 324 323 325 323 324 324 318 313 313 320 322 316 317 320 318 321 331 344 345 342 347 352 347 343 348 354 357 363 366 364 363 362 360 360 359 359 358 355 356 356
319 318 318 317 317 318 319 317 318 321 322 320 317 315 315 316 315 318 320 321 323 324 325 327 326 325 322 321 324 325 328 327 325 328 328 328 329 330 329 328 327 326 327 328 326 327 325 325 324 323 323 322 323 323 314 312 313 314 316 314 316 320 319 318 325 335 338 339 342 345 349 347 347 353 355 359 364 363 362 361 360 360 358 358 359 357 357 358
318 319 318 317 318 318 317 317 320 322 321 317 315 316 318 319 319 323 327 326 328 328 327 327 325 322 319 321 326 326 327 327 325 327 329 329 328 329 331 328 326 325 325 326 325 325 325 324 323 319 321 322 325 324 319 319 321 319 319 317 315 315 318 321 325 328 328 331 337 339 339 342 344 350 355 356 360 361 359 361 361 360 358 357 358 359 359 358
318 319 318 318 318 317 317 319 322 322 319 316 318 322 324 326 327 329 329 326 325 324 322 324 323 322 323 324 326 327 326 324 325 327 329 330 329 329 329 326 326 325 325 326 324 324 324 322 321 320 322 325 326 325 325 325 325 325 323 320 319 316 317 324 327 329 332 328 331 337 336 338 340 345 355 356 357 360 358 361 363 361 360 357 357 359 359 358
318 318 318 318 318 317 318 320 321 322 317 317 323 329 327 328 329 327 327 326 324 324 323 323 324 324 325 326 327 328 326 324 325 326 328 330 329 328 327 326 325 324 325 326 324 325 324 321 321 325 326 327 326 326 326 325 326 326 323 319 318 317 318 325 328 329 336 331 330 341 338 337 345 346 352 354 356 360 358 360 362 362 360 358 359 359 359 359
317 319 318 318 318 317 317 319 320 320 317 317 324 329 324 324 324 321 323 325 325 325 324 325 326 326 327 327 328 328 327 326 324 324 328 328 328 327 326 326 325 326 326 325 325 325 323 322 325 328 327 326 327 326 325 326 327 325 324 319 315 319 321 324 329 333 338 331 328 339 336 335 348 349 351 355 355 357 358 359 360 360 361 360 359 360 360 360
316 319 318 318 319 317 317 318 318 318 318 321 325 325 323 323 322 320 321 325 325 324 325 325 326 326 327 329 329 328 327 325 324 325 327 327 326 326 325 325 325 326 325 325 326 322 318 322 328 327 326 327 326 326 326 325 325 325 323 316 313 320 319 316 325 334 336 330 329 337 336 340 350 352 355 355 355 360 362 361 360 359 361 361 359 359 360 359
316 319 319 319 319 318 319 318 318 319 319 322 324 323 324 323 324 324 323 325 326 326 326 326 327 327 328 329 329 329 327 324 324 324 326 326 325 325 325 326 326 326 326 327 327 324 321 325 328 326 326 327 327 326 327 323 321 323 324 318 316 321 320 317 324 328 326 332 339 333 327 332 342 347 354 355 357 361 359 359 359 359 360 360 359 359 360 359
316 318 319 319 319 320 320 319 322 322 320 321 323 323 322 322 325 325 325 327 324 325 328 327 328 329 328 329 329 329 327 325 325 325 326 326 325 325 326 326 325 326 326 327 327 326 326 326 326 327 326 327 326 326 327 323 318 318 323 323 322 323 323 322 325 322 317 324 338 326 316 322 333 340 351 355 358 360 359 359 358 359 362 360 360 360 359 360
315 317 320 319 319 320 321 325 325 322 323 325 325 324 322 324 325 324 328 325 318 322 329 327 329 329 329 329 329 329 325 324 326 325 325 326 326 326 326 326 326 326 326 327 327 325 326 326 326 327 326 327 328 325 327 326 317 313 320 325 326 325 324 322 323 319 310 315 331 327 316 316 324 335 350 354 356 360 360 359 358 359 364 362 362 361 359 360
315 318 319 319 319 320 324 328 325 324 328 328 326 325 325 326 325 325 326 317 314 323 327 326 328 329 328 329 329 326 321 323 326 325 325 326 326 326 325 326 326 325 327 325 321 322 327 327 326 327 328 327 325 324 327 328 318 315 323 326 326 326 324 323 322 317 315 317 325 330 322 315 316 328 346 350 349 353 354 354 355 356 361 362 362 361 359 358
316 317 319 319 319 320 323 324 324 328 329 326 325 325 326 325 324 328 324 312 316 326 327 325 327 327 327 328 328 325 322 324 325 324 325 325 325 325 324 326 326 325 328 323 316 321 328 327 326 328 327 325 325 325 327 328 322 321 326 326 325 326 325 325 321 317 319 318 314 322 324 317 315 325 341 347 345 349 353 353 354 354 357 361 360 360 359 358
316 317 320 319 319 320 320 319 323 329 327 324 326 325 325 323 326 332 323 314 319 327 325 325 325 326 327 327 326 326 325 325 325 324 324 324 324 325 325 325 326 324 326 324 321 325 328 327 327 327 327 326 327 328 327 326 326 326 326 325 325 327 326 326 323 317 317 315 311 316 319 316 317 324 336 345 344 347 354 353 353 356 357 359 360 359 358 357
317 319 320 319 319 320 320 320 323 327 326 324 325 324 323 325 329 325 316 315 322 324 324 325 325 326 327 327 326 326 326 325 325 325 324 325 324 324 325 324 325 326 326 326 326 327 329 327 328 328 327 329 327 328 326 325 327 326 326 326 324 326 328 325 323 318 314 313 313 315 318 317 318 324 335 344 345 348 354 353 352 355 357 358 359 358 357 357
318 320 320 320 321 322 322 325 326 325 325 324 324 324 325 331 331 318 313 320 323 322 324 326 326 326 326 326 326 325 326 326 325 325 325 326 325 324 325 324 324 324 324 324 325 329 330 329 330 329 327 328 327 327 326 325 325 326 327 325 318 318 321 318 317 316 313 311 314 317 319 318 318 327 341 349 352 353 355 355 354 354 356 357 357 357 357 355
320 322 321 320 320 322 324 328 328 324 324 325 326 328 328 329 324 315 317 322 320 321 326 326 325 326 325 327 326 325 326 326 325 326 326 325 326 326 326 325 325 320 315 317 321 325 329 331 331 330 329 330 328 325 325 325 327 327 325 319 312 311 313 312 311 312 311 311 315 319 319 319 325 337 348 354 355 355 356 355 355 356 356 356 356 356 356 354
322 323 322 320 320 320 322 326 326 323 324 326 328 332 332 323 317 317 321 322 320 322 327 326 326 326 324 325 325 325 326 326 326 326 326 326 326 327 326 327 327 321 316 317 316 315 320 327 332 331 329 330 330 324 319 321 326 325 321 314 310 311 312 312 311 311 311 311 314 320 319 318 327 342 352 356 354 354 355 354 354 356 356 356 356 355 354 354
323 322 321 320 319 320 321 323 323 322 324 329 331 334 330 319 318 323 324 324 325 325 326 327 326 326 325 324 325 325 325 324 326 326 326 326 325 324 326 326 326 327 324 319 316 314 313 318 327 329 327 329 331 328 323 325 326 326 326 321 313 311 312 312 311 310 311 310 312 318 318 316 325 341 352 353 352 352 352 352 353 353 354 355 354 354 354 355
323 321 320 319 320 320 321 320 321 322 324 331 334 332 323 316 319 323 324 327 328 326 326 327 328 325 324 326 326 326 324 322 325 327 326 327 325 325 328 328 328 329 325 318 316 318 313 315 327 329 328 330 329 329 331 328 324 326 329 323 315 315 316 312 311 312 311 310 311 314 317 322 334 347 352 349 351 352 350 351 352 351 353 353 352 353 353 354
323 323 323 325 325 324 323 322 322 322 324 333 333 326 322 322 324 326 328 329 328 327 326 325 326 322 318 322 325 326 325 324 326 327 327 329 329 329 330 330 329 329 326 321 319 319 313 316 330 331 329 331 329 328 331 326 322 325 323 318 319 324 322 312 311 314 312 311 313 313 316 326 334 342 351 351 351 352 350 350 351 351 352 352 352 352 352 352
327 329 330 331 328 327 327 325 323 323 327 333 329 324 328 330 329 328 330 329 326 328 327 319 321 321 315 316 321 325 325 324 326 324 323 326 328 328 331 331 328 328 328 325 323 325 318 316 327 332 328 330 329 328 330 329 326 323 318 319 325 326 324 318 313 313 313 312 313 313 315 321 324 332 349 355 351 351 349 349 349 350 350 350 351 350 350 351
330 334 334 332 328 326 327 325 324 327 330 333 331 330 332 331 328 327 327 327 326 330 327 320 321 324 319 315 319 326 324 320 323 323 322 324 325 326 331 331 329 329 329 326 325 329 325 316 322 332 329 328 331 328 325 328 330 326 322 326 325 317 316 318 314 313 314 312 313 314 316 325 329 336 350 354 351 351 349 348 348 348 348 348 349 349 349 349
331 334 334 329 325 325 326 325 327 331 331 332 331 331 330 328 326 326 325 327 328 329 329 326 326 327 325 321 321 327 325 320 323 323 321 324 325 325 328 329 329 331 329 328 329 332 330 320 317 328 331 327 330 328 321 323 328 327 326 327 327 320 316 317 315 315 313 312 314 314 316 331 342 347 352 352 351 350 348 348 348 346 347 347 347 348 347 347
333 332 332 328 326 327 327 327 331 333 331 332 330 330 329 328 326 325 325 326 327 328 330 330 329 328 328 327 326 327 326 326 326 325 324 326 326 325 326 327 329 331 329 330 332 332 333 325 316 324 330 325 325 328 327 326 326 324 322 322 325 323 321 320 317 316 314 312 315 313 318 338 350 349 350 350 349 348 347 347 346 345 345 345 345 346 346 346
332 331 332 329 328 329 330 331 333 333 332 331 330 330 329 328 327 325 325 326 326 327 328 330 331 330 329 328 328 328 328 328 328 327 326 327 326 324 324 325 327 330 330 332 333 330 330 326 317 318 321 320 324 332 334 334 331 328 325 323 325 322 319 318 315 316 315 313 315 312 319 341 350 344 345 347 345 346 345 345 345 343 343 343 343 344 345 346
332 331 332 330 328 330 333 333 332 333 331 329 328 327 327 327 327 325 326 326 326 327 327 329 330 330 331 330 329 329 329 327 327 327 326 326 327 324 323 323 326 330 331 331 332 332 333 330 320 316 319 324 330 332 331 333 335 334 330 331 332 326 321 316 314 317 315 313 317 312 318 340 348 341 343 344 342 344 342 342 343 341 341 341 340 341 342 344
333 332 332 330 330 331 334 332 331 331 329 326 326 325 325 326 326 326 326 326 326 327 327 328 328 329 330 330 329 331 330 327 327 327 326 327 326 323 322 322 325 330 331 331 331 331 334 331 320 317 323 328 330 332 331 332 334 333 333 334 333 330 328 323 320 321 315 313 317 312 319 342 347 339 342 341 340 342 340 340 342 340 340 339 338 339 339 341
333 332 332 331 331 332 333 331 330 329 327 326 326 325 324 324 325 326 326 325 326 327 327 327 327 327 329 329 330 331 329 326 325 327 328 327 324 323 322 321 324 330 332 334 335 329 327 329 322 317 319 321 322 324 325 327 330 332 334 335 334 333 332 327 324 323 316 317 320 313 320 343 347 340 341 339 338 340 338 339 340 338 340 338 337 338 338 339
331 333 332 332 332 331 330 330 329 328 328 327 327 326 326 324 323 324 324 324 325 325 327 327 326 326 327 328 330 331 330 328 326 327 328 327 326 323 321 322 324 328 332 336 341 333 328 330 326 318 315 316 317 318 320 324 329 332 335 336 335 333 330 326 320 317 317 321 323 319 325 341 346 343 342 341 339 339 338 338 338 339 339 338 338 337 337 338
331 332 331 331 331 329 328 328 328 328 328 329 328 326 327 326 324 324 324 324 324 324 325 325 325 327 327 327 330 330 330 330 328 329 329 327 327 324 321 322 321 326 336 337 336 333 332 331 330 325 319 318 320 323 327 329 327 328 332 334 335 334 333 327 318 317 322 321 322 329 335 336 338 343 343 341 340 340 339 338 339 340 339 339 340 339 338 339
331 333 333 333 331 328 328 327 327 328 327 329 329 327 327 327 325 325 324 325 324 323 325 324 324 326 326 328 329 328 329 332 330 330 328 328 327 324 321 322 320 328 340 336 327 330 331 325 329 332 326 326 330 330 331 332 328 327 329 330 333 334 334 330 322 326 333 323 321 338 343 333 334 342 341 339 339 338 338 338 339 340 338 339 341 340 339 339
332 333 332 332 333 329 328 329 328 328 327 327 327 326 327 328 327 327 326 325 325 325 326 326 324 324 325 326 327 328 329 330 329 330 329 326 327 325 324 324 321 326 333 328 324 332 329 322 327 333 330 332 335 333 332 333 332 331 331 331 334 334 333 332 329 333 337 328 327 340 341 335 338 340 337 337 338 336 338 338 339 339 338 338 339 339 338 338
332 332 328 328 331 329 326 327 328 327 328 329 328 327 327 328 326 326 325 326 326 324 325 326 324 323 323 325 326 329 329 326 325 330 330 326 327 327 325 325 322 323 325 323 326 330 326 324 330 333 330 332 334 333 334 333 331 332 334 334 336 336 335 335 335 336 337 333 334 339 338 337 339 338 337 337 336 337 337 337 337 339 339 339 338 338 338 337
331 331 330 328 327 327 325 325 327 327 327 330 329 327 326 327 326 325 324 326 327 325 324 325 324 323 324 325 326 328 328 326 326 328 328 326 326 326 326 325 324 324 323 322 326 326 323 326 334 333 327 328 332 332 332 332 331 331 332 335 336 335 335 335 335 336 336 335 338 339 336 335 336 337 337 336 336 337 335 334 337 338 338 338 338 338 338 337
330 328 330 333 328 327 327 325 327 328 327 329 329 327 327 326 326 326 324 324 326 325 323 323 324 325 325 326 327 327 326 326 327 326 324 325 325 324 325 325 324 325 326 323 324 325 324 328 333 329 321 323 329 329 328 331 330 328 329 333 334 333 333 334 336 336 335 335 337 335 331 333 336 336 336 336 336 335 333 334 335 335 336 337 336 336 336 336
329 328 328 333 328 326 327 326 327 329 327 327 327 327 327 325 324 325 326 325 325 324 323 323 324 326 327 328 328 328 326 326 326 324 322 322 323 323 325 325 325 325 327 325 324 326 327 327 327 323 317 319 327 328 327 327 324 323 327 332 335 336 335 334 335 336 336 336 334 330 330 335 337 335 334 335 333 333 334 333 332 334 336 336 334 334 334 334
Wind_Speed
17 16 16 15 14 14 13 12 12 13 13 13 13 14 14 13 13 12 11 11 11 11 11 12 12 13 13 13 13 13 15 13 9 7 10 9 7 10 8 8 13 13 12 11 10 9 7 7 5 4 6 5 3 1 0 1 3 3 3 3 3 5 6 7 8 7 5 5 4 5 4 2 2 4 4 5 5 5 7 5 3 4 3 5 9 15 20 21
18 17 16 15 15 14 14 13 13 13 13 13 14 14 13 13 13 11 10 11 10 10 11 11 12 12 12 12 12 14 15 11 9 10 10 8 4 8 11 8 12 16 13 12 13 10 8 6 5 5 6 4 1 1 1 0 3 3 3 2 4 6 6 5 6 6 5 4 3 4 4 2 1 4 5 5 6 7 7 6 5 5 6 7 11 16 20 20
19 18 16 15 15 14 14 14 13 13 13 13 13 14 13 13 13 10 10 10 9 10 10 10 11 11 12 11 11 13 13 10 8 4 2 3 6 7 10 10 12 17 14 10 11 10 8 5 4 5 6 4 1 1 2 1 2 3 3 3 6 8 7 3 4 5 4 2 1 3 4 4 2 3 4 4 5 7 7 6 7 7 8 9 12 15 18 19
21 19 18 16 15 14 14 14 14 13 13 13 13 13 13 13 12 10 9 9 9 9 10 10 10 11 11 10 11 11 9 9 2 4 4 1 7 8 9 10 12 18 14 7 7 7 7 5 5 5 7 5 1 2 2 3 3 3 3 5 7 8 7 4 3 6 2 2 1 3 5 5 4 4 3 4 4 5 6 6 7 8 10 11 12 14 17 18
21 20 19 18 16 14 13 13 13 12 11 11 12 12 12 12 11 8 8 8 8 8 9 9 9 10 9 9 10 8 6 5 4 6 4 4 7 9 9 10 13 18 12 6 7 6 6 6 6 6 6 4 3 2 2 5 4 4 1 5 7 8 7 5 4 4 1 2 2 4 4 4 4 5 5 6 4 1 2 5 6 8 10 12 13 14 16 16
22 21 20 18 16 14 13 12 12 11 10 11 11 11 11 11 9 7 7 6 7 8 8 8 9 9 8 9 8 4 6 1 4 3 4 7 8 10 11 12 15 16 11 8 7 7 7 6 7 6 4 4 3 4 4 5 4 4 2 6 8 7 7 5 3 2 3 4 4 4 3 4 5 5 5 8 7 1 3 3 6 8 10 12 13 14 14 15
22 21 20 19 17 15 13 12 11 10 10 10 11 11 11 10 8 7 6 6 6 7 7 7 7 7 7 7 4 4 6 1 4 2 5 8 10 11 12 13 14 12 10 9 8 7 7 7 7 4 5 4 3 4 5 5 3 4 4 7 9 7 6 4 3 1 3 3 1 3 4 5 6 3 4 7 8 3 1 2 5 8 11 12 13 13 14 15
23 22 21 19 17 15 13 12 11 10 10 10 10 10 10 9 7 6 5 5 5 6 6 6 6 5 6 4 4 5 5 3 5 1 5 10 11 11 12 12 10 8 8 8 7 7 7 7 6 3 5 3 4 4 5 6 3 2 6 8 9 7 5 3 2 1 3 1 2 4 4 4 3 1 3 7 7 6 4 4 6 8 11 12 12 13 13 14
24 23 21 19 18 15 13 11 11 10 10 10 10 9 8 7 6 6 5 4 5 5 5 5 4 3 4 4 6 5 2 5 3 2 7 11 12 12 11 9 9 8 7 6 5 7 6 5 3 3 5 3 4 5 6 6 1 2 9 10 9 9 5 2 1 1 2 1 3 5 4 3 2 1 5 8 6 7 7 6 8 9 11 11 11 12 12 13
25 23 22 20 18 15 13 11 10 10 9 9 9 8 7 7 6 5 5 4 4 4 4 4 2 1 3 4 8 4 5 7 2 6 8 10 12 13 9 7 8 7 6 6 7 7 4 2 0 1 5 4 3 5 5 5 5 7 11 11 10 8 4 2 1 1 2 2 4 6 4 2 4 3 3 4 6 7 8 8 9 9 10 11 10 11 11 13
25 24 22 21 19 15 13 12 10 9 9 9 9 8 7 6 5 5 5 4 3 3 4 3 1 1 4 6 7 1 6 6 3 7 9 10 11 10 7 6 7 7 6 6 7 6 2 2 2 2 4 2 3 7 4 3 7 10 11 12 10 5 0 1 1 2 3 2 3 5 5 3 4 4 2 5 7 8 9 10 10 9 10 10 10 10 10 11
26 24 22 21 19 15 13 12 10 9 9 8 8 7 6 5 5 5 5 4 3 3 3 3 3 1 4 7 6 1 3 3 2 6 9 9 8 6 5 6 5 5 4 4 6 5 3 2 3 6 3 3 6 6 3 4 9 11 8 10 10 4 2 1 0 2 2 2 2 4 5 5 6 5 3 6 7 9 9 9 11 10 9 10 10 10 9 10
26 24 22 20 18 15 13 11 11 10 8 8 7 7 5 4 4 4 4 3 2 3 3 3 2 1 4 5 1 1 2 2 1 5 9 8 6 4 4 5 4 4 3 2 4 3 4 3 5 6 4 6 7 5 6 8 9 9 6 5 8 4 3 2 2 2 3 2 2 4 3 2 5 5 5 7 8 10 10 9 10 10 9 10 10 9 9 11
26 25 22 19 17 15 12 11 10 10 9 7 6 6 4 3 4 3 3 3 3 3 3 3 2 1 5 3 3 2 3 0 2 5 8 8 6 4 4 4 4 4 3 1 2 1 2 3 6 6 3 5 6 7 10 10 6 6 5 3 5 2 4 4 3 2 3 3 3 5 2 3 3 5 7 7 9 10 10 10 10 9 9 9 10 10 9 11
26 25 22 19 15 13 12 11 10 10 9 7 6 4 3 3 3 4 4 4 4 5 4 2 1 2 6 3 3 2 2 3 5 6 7 7 7 5 5 5 4 4 3 2 1 0 2 4 6 6 3 3 7 9 9 7 4 4 5 3 3 2 3 6 5 1 1 2 5 6 3 2 4 5 6 6 8 10 9 9 10 9 10 9 9 10 9 11
27 25 22 18 13 11 11 11 10 9 8 6 5 3 2 3 4 5 5 5 6 6 5 1 2 4 6 1 4 2 3 5 5 6 7 6 5 4 5 5 5 5 4 3 3 2 3 5 3 4 5 5 7 7 6 6 4 3 4 3 1 4 4 3 5 3 1 1 5 6 5 3 3 6 6 7 8 9 9 9 10 10 10 10 9 9 9 9
27 25 21 17 12 10 10 10 10 7 6 5 3 2 4 4 5 5 5 6 6 5 2 1 2 5 4 1 3 4 5 5 5 5 6 6 4 4 6 6 5 5 5 4 5 5 5 5 3 3 5 6 5 5 6 5 2 2 2 3 2 4 6 2 3 5 3 3 3 6 6 6 0 6 7 9 10 10 9 9 10 10 9 9 9 9 9 9
27 24 20 16 12 10 10 9 7 5 4 3 3 5 7 6 7 6 6 6 5 3 2 2 3 4 3 4 3 4 5 4 5 5 5 6 6 5 4 3 2 4 6 6 6 6 5 4 4 4 5 5 4 6 5 1 2 3 4 4 4 4 4 4 3 3 2 4 4 5 7 8 4 6 7 9 11 11 10 9 9 10 10 10 9 9 9 10
27 23 18 14 12 11 10 7 4 2 3 5 8 10 10 8 6 5 4 4 4 2 1 4 5 3 2 6 3 4 3 3 4 5 6 8 7 6 4 3 3 5 6 6 6 6 4 4 5 5 5 4 2 4 4 5 5 6 6 6 6 5 3 4 5 4 3 6 5 5 6 7 4 4 7 9 11 11 10 9 8 9 9 9 9 9 9 10
26 22 17 13 11 11 7 3 1 2 5 9 11 9 6 4 3 4 5 6 7 5 3 1 4 4 2 6 4 2 2 4 5 5 7 8 8 8 6 5 5 6 5 3 4 3 3 5 6 3 0 1 1 2 5 5 4 7 7 6 6 6 4 3 4 4 3 6 4 3 7 8 6 3 7 8 10 10 10 9 9 9 9 9 10 11 11 10
26 21 15 11 10 8 4 1 2 4 8 12 10 5 1 1 1 2 3 8 9 7 6 3 4 6 3 1 2 2 2 5 5 6 8 8 9 8 6 5 7 6 3 1 1 2 4 5 2 2 3 3 3 3 4 5 5 7 6 6 6 4 4 3 3 4 2 3 3 2 7 7 4 1 6 8 9 9 9 10 9 10 10 9 10 11 11 9
25 21 14 9 8 6 4 1 2 6 11 13 9 6 3 4 2 3 3 4 6 5 7 5 4 7 6 5 3 3 4 6 7 7 7 8 9 7 5 6 8 3 4 4 4 4 6 3 4 4 3 3 3 3 4 5 6 6 5 5 4 2 3 1 3 3 3 3 4 5 8 5 6 3 3 5 6 5 5 7 7 8 9 9 10 10 10 10
25 20 13 8 6 4 4 3 3 7 12 10 7 6 2 2 1 3 5 4 3 4 4 5 5 6 6 5 4 6 6 6 8 9 9 9 9 5 4 7 6 2 4 6 4 3 4 3 5 3 3 3 3 2 3 5 5 5 4 5 3 2 4 1 3 1 4 4 6 7 6 5 7 4 4 2 3 2 2 4 6 6 7 8 9 9 9 10
24 19 12 6 4 1 2 3 2 6 10 9 9 6 2 2 4 5 5 4 2 4 2 2 3 5 3 2 6 9 6 3 5 9 11 11 7 4 5 5 5 4 4 4 4 6 2 5 3 1 2 4 4 3 4 6 5 4 3 5 4 4 6 5 3 6 6 5 4 8 3 4 5 5 5 3 2 1 1 3 5 6 6 7 8 9 9 10
23 18 11 5 2 2 2 0 2 4 7 8 9 7 6 6 6 5 5 3 3 4 2 3 2 3 2 3 6 7 4 4 3 8 12 11 6 5 3 2 4 4 3 2 5 6 1 4 2 2 3 4 5 4 3 4 5 3 3 3 6 7 8 8 7 8 6 3 1 5 2 3 4 8 7 5 4 3 1 2 3 4 5 7 8 9 8 8
22 17 10 4 1 2 2 1 3 4 6 6 3 4 6 8 6 5 5 4 5 4 4 4 2 4 5 5 7 5 5 6 3 5 10 8 5 3 2 3 3 2 2 3 5 3 1 3 2 4 3 4 6 5 3 3 7 1 5 3 6 7 8 8 8 7 5 1 2 3 3 1 5 8 9 6 7 8 5 3 4 2 4 6 7 7 7 7
21 16 9 3 3 5 2 1 3 4 3 2 1 4 6 6 6 7 5 4 5 2 3 3 1 3 4 4 7 4 4 7 6 6 7 6 6 4 4 4 3 2 1 4 4 2 1 3 4 3 5 5 6 4 3 3 8 2 6 3 6 7 8 8 8 6 5 3 2 2 3 0 4 6 7 5 8 11 11 9 10 8 4 3 6 6 6 7
21 14 8 4 6 8 5 1 2 3 1 2 5 8 4 6 9 5 6 3 5 1 3 4 2 2 2 3 5 3 2 6 6 6 6 6 6 5 5 4 3 1 2 6 2 4 1 2 2 4 6 5 3 2 3 4 7 3 4 4 6 7 7 7 7 4 3 3 1 3 2 1 4 3 2 4 8 12 13 12 12 12 10 6 3 4 5 6
19 13 7 4 6 8 8 6 6 4 1 4 8 4 5 10 6 5 5 2 3 2 2 4 3 4 5 5 6 3 3 2 1 5 7 7 7 6 4 1 4 3 4 7 4 3 2 4 5 5 5 3 3 3 0 5 5 3 3 7 7 6 5 4 5 2 1 2 2 3 3 2 4 3 3 6 10 11 11 11 12 12 13 10 6 2 3 3
17 11 6 5 5 6 8 9 9 6 3 5 4 4 9 7 4 6 3 3 2 4 3 2 4 6 8 8 7 6 3 2 3 7 7 5 7 7 3 0 4 6 4 6 5 3 2 1 0 2 3 5 4 3 3 6 6 4 6 9 8 6 2 3 3 2 2 1 4 3 3 2 2 3 5 6 8 10 9 9 12 13 13 12 10 6 3 1
15 10 5 7 7 7 6 5 7 7 3 4 1 7 7 4 5 4 4 3 2 5 5 5 5 7 11 9 7 7 5 3 5 7 7 5 7 8 5 5 5 5 5 5 4 3 3 4 3 2 3 4 4 4 3 6 7 6 7 7 6 4 1 3 4 3 4 0 3 1 2 2 1 4 4 6 8 10 10 10 13 14 14 12 11 9 7 4
13 9 7 9 10 11 8 3 7 6 3 1 5 6 5 4 4 2 6 3 3 6 5 6 7 9 11 7 5 8 6 5 6 6 5 5 6 5 4 3 2 4 5 3 4 5 4 3 3 3 2 4 5 4 5 6 6 6 6 5 5 4 3 5 4 4 3 2 3 1 1 1 5 6 6 8 10 11 11 11 12 13 13 12 11 10 8 6
11 7 6 9 11 13 11 7 6 4 3 3 6 5 5 4 2 4 5 3 2 4 3 5 7 9 11 8 6 8 5 4 6 5 3 4 5 4 2 1 4 4 2 1 3 5 5 6 4 2 3 5 8 3 1 2 2 2 3 4 5 4 4 5 3 3 3 2 5 2 2 2 6 6 8 10 11 12 12 12 12 13 13 12 12 11 9 9
8 2 4 8 10 11 11 9 7 6 4 5 6 5 6 2 4 2 3 4 4 4 4 6 8 9 9 6 7 8 4 4 5 5 5 6 5 4 4 3 2 5 3 2 2 2 2 5 4 4 2 6 7 6 6 5 3 2 4 5 5 4 4 5 4 4 4 1 4 4 2 2 6 5 7 9 10 12 12 12 13 13 13 12 12 13 12 11
3 3 2 3 5 7 9 9 9 6 5 6 6 4 3 2 5 2 3 5 4 5 6 7 8 10 8 4 6 6 3 3 6 5 4 4 2 2 1 2 1 4 5 3 2 1 1 4 5 3 2 5 6 5 5 7 3 2 3 6 3 3 4 5 4 5 6 5 2 3 0 3 6 7 8 9 11 14 14 14 15 15 15 13 13 14 13 12
5 6 5 3 1 3 6 8 9 9 6 6 5 1 1 3 3 2 3 2 2 6 9 9 7 8 8 5 7 7 2 1 7 6 3 2 3 3 1 3 2 4 5 3 1 2 1 4 4 1 1 2 5 3 4 6 3 2 3 3 3 3 5 6 3 2 5 7 2 1 2 5 7 6 9 12 13 17 17 17 16 16 17 15 14 14 14 13
4 3 4 4 2 3 5 6 9 9 6 6 3 2 3 3 4 4 2 1 0 3 8 8 4 3 7 7 6 8 6 4 7 6 3 4 3 4 2 2 3 3 5 4 1 1 2 3 4 1 1 3 2 4 3 3 5 6 4 2 2 2 4 4 4 3 5 6 2 1 3 4 5 3 8 14 16 17 17 17 16 16 17 16 15 15 15 15
4 3 4 6 5 2 3 7 9 7 6 5 1 2 2 3 4 4 3 1 1 4 5 3 2 2 4 7 7 8 8 6 7 6 4 4 2 3 2 1 3 2 3 5 2 1 3 2 5 2 2 1 1 5 4 2 2 4 4 1 2 5 3 2 5 5 6 7 4 2 4 2 1 2 8 13 15 15 15 15 16 16 16 15 14 15 16 15
5 5 3 7 6 5 6 6 6 6 5 3 3 3 2 5 6 5 3 1 2 4 3 2 2 2 2 3 5 7 6 5 7 6 3 2 2 3 3 1 2 3 2 4 3 1 2 3 2 3 1 3 2 3 3 2 2 1 2 3 3 4 5 3 4 5 6 7 6 4 4 2 4 6 8 10 11 12 13 13 14 15 15 14 14 14 15 15
5 3 3 4 4 5 3 3 5 5 4 1 3 3 2 4 6 7 4 1 2 2 2 3 2 2 3 2 3 5 3 3 4 4 2 1 2 3 4 3 3 3 2 3 2 1 1 3 1 2 2 4 1 4 5 6 5 2 3 2 1 3 4 4 4 4 6 7 6 6 4 3 6 5 6 8 9 10 11 11 11 12 14 14 14 15 14 15
5 2 4 3 0 5 6 5 4 3 2 3 3 4 3 3 4 7 6 5 4 5 5 5 5 3 3 2 3 4 3 3 4 3 2 1 1 2 5 5 5 3 1 3 2 1 1 2 4 2 1 1 3 5 4 5 6 6 4 4 4 4 3 5 6 3 4 6 5 7 5 4 5 4 5 7 7 7 9 10 10 11 14 14 14 15 15 15
5 1 4 3 2 6 6 4 2 1 1 3 2 3 3 3 3 5 6 6 6 5 6 7 7 5 3 3 3 4 3 3 3 2 2 3 3 4 5 6 4 4 4 1 4 3 3 3 4 3 3 3 5 4 2 3 4 3 3 5 5 4 4 5 6 3 3 5 4 7 5 3 4 3 5 5 6 7 8 9 9 10 11 12 14 15 16 15
2 2 4 2 2 5 6 3 4 2 2 4 3 4 4 3 5 6 5 5 5 4 5 5 5 5 4 4 2 3 2 1 1 2 3 5 6 6 5 6 4 4 4 1 4 2 2 3 3 2 1 3 4 4 3 1 3 2 2 5 5 4 4 5 6 5 6 5 4 7 5 3 4 3 4 4 5 6 7 9 9 9 9 11 13 15 15 15
2 3 3 1 2 5 4 2 5 5 5 5 6 6 6 6 7 8 7 7 5 3 4 5 5 5 4 3 2 2 1 1 2 3 2 4 5 4 5 7 5 2 2 3 1 0 1 1 2 4 4 3 5 5 4 3 2 0 3 5 5 5 6 6 4 4 5 3 5 7 4 4 4 2 3 4 4 5 6 8 10 10 11 12 13 13 14 14
1 2 2 1 2 3 2 1 1 5 7 6 7 6 5 6 6 6 7 8 7 5 4 4 3 4 3 2 2 3 2 2 1 2 2 4 5 4 4 6 6 4 5 6 4 2 2 1 2 5 6 6 4 1 1 0 0 2 3 5 5 6 7 6 5 4 3 3 4 5 3 4 5 2 1 3 4 5 6 7 8 9 10 12 12 13 13 13
2 3 2 3 2 1 1 2 1 3 6 5 5 4 3 6 5 4 5 6 7 7 5 4 2 1 1 0 2 3 3 3 2 3 3 4 5 4 4 4 5 6 5 4 4 2 0 2 1 2 4 5 3 4 3 3 2 1 3 5 5 6 7 6 5 4 4 5 3 2 4 2 1 1 4 6 6 6 7 8 8 8 8 9 9 10 11 12
2 1 1 2 2 1 3 2 0 2 3 1 1 2 3 5 5 3 5 5 5 5 4 5 4 2 2 2 1 2 3 3 4 4 3 2 3 5 3 2 4 5 2 2 2 2 2 1 2 2 2 3 4 5 3 2 2 2 3 4 5 6 6 5 3 4 5 6 3 4 4 6 4 5 7 8 9 9 9 10 9 7 7 7 6 7 9 9
2 0 2 2 1 1 3 2 1 2 3 2 1 1 2 4 3 3 5 4 4 4 2 3 6 6 5 3 2 0 2 3 4 3 2 1 1 3 4 3 4 3 2 2 1 2 4 1 3 4 5 6 5 5 4 4 4 3 3 4 5 5 5 5 5 5 5 4 3 4 4 5 6 6 7 8 9 9 9 9 7 6 7 7 6 7 8 8
2 1 2 2 2 2 3 2 1 2 4 2 2 2 2 4 5 4 4 2 3 5 5 2 5 6 5 3 3 0 2 0 2 3 2 2 1 1 2 3 3 3 1 1 3 1 3 0 4 5 6 7 5 5 5 5 5 5 4 3 4 5 5 5 5 5 4 3 4 3 3 4 5 6 8 8 7 8 7 7 7 7 7 8 8 7 7 6
3 2 2 1 2 3 3 2 2 4 4 1 1 3 2 4 6 5 4 4 3 4 4 2 5 5 5 5 3 3 4 4 4 5 2 1 1 1 1 1 2 3 1 1 2 1 2 2 4 5 5 5 5 5 5 5 5 5 5 4 2 2 3 3 4 4 2 2 3 3 4 2 4 5 7 7 7 7 7 8 9 7 7 9 9 9 8 7
4 2 3 2 2 2 1 2 2 3 4 1 2 3 2 4 7 6 6 7 6 4 3 3 4 3 3 5 5 5 5 4 5 5 4 3 2 2 2 2 3 2 1 2 1 2 2 2 5 5 4 4 6 6 5 5 3 4 4 4 2 1 2 4 4 4 4 4 4 5 5 4 5 6 7 7 7 9 9 10 9 7 7 9 10 11 10 9
5 1 3 4 1 1 1 2 2 2 2 3 2 2 2 5 6 3 3 4 5 5 4 2 1 1 2 4 5 6 5 3 4 4 3 2 3 2 2 2 2 3 1 2 1 1 2 3 5 4 4 4 7 6 4 3 5 4 4 4 4 3 2 2 2 4 4 5 6 5 4 6 7 7 8 9 10 10 10 10 9 8 7 8 9 10 11 11
Wind_Direction
341 334 328 321 315 311 307 304 301 301 301 302 303 302 301 302 303 304 309 311 317 320 317 314 310 315 319 322 327 325 328 326 305 256 233 254 257 229 224 201 192 176 159 166 174 180 190 212 222 242 260 253 263 333 33 313 312 278 300 347 34 26 20 2 348 2 352 357 63 133 191 248 108 158 178 176 174 143 154 157 132 144 115 86 102 128 139 146
342 336 329 321 314 309 305 302 299 297 296 298 298 297 298 298 300 303 305 308 314 316 314 310 310 317 319 324 329 328 333 320 274 251 244 252 248 209 207 201 191 179 164 178 191 202 219 226 235 253 271 271 281 14 281 310 301 309 330 341 40 19 1 344 332 341 334 356 53 139 178 222 95 149 180 189 171 158 170 162 157 159 137 122 126 139 145 150
343 339 333 325 317 310 306 302 299 296 296 296 296 295 294 295 298 300 301 306 312 313 310 307 313 318 319 326 329 333 334 299 256 235 273 237 199 186 191 191 190 186 181 194 205 220 241 260 262 264 280 278 9 344 310 12 315 336 331 339 35 9 348 354 320 318 318 340 129 145 167 194 162 158 190 215 188 177 191 173 172 175 157 147 142 148 153 156
343 340 336 330 321 313 307 303 300 298 297 296 296 294 292 293 296 297 297 302 309 309 308 308 314 317 319 326 330 338 321 274 230 88 43 159 177 175 181 185 185 186 189 208 215 222 242 251 250 265 279 277 337 296 311 35 342 326 329 349 13 351 348 33 336 314 293 235 204 138 170 187 171 185 199 222 210 190 201 188 183 179 165 157 152 156 160 163
343 340 337 332 327 318 308 304 302 301 300 298 296 294 293 293 294 295 292 298 306 305 306 308 313 318 318 326 334 337 297 255 103 76 55 111 156 159 163 167 169 175 185 205 200 209 226 230 236 246 262 280 309 289 30 41 330 299 350 358 356 342 348 16 343 314 241 212 191 156 179 172 160 196 208 218 230 152 145 180 184 174 167 161 158 162 165 168
344 341 338 334 330 323 313 308 306 305 305 300 297 296 294 293 293 288 285 294 300 300 303 306 312 316 316 326 339 315 277 299 80 61 87 117 145 148 146 143 147 162 182 194 189 206 214 217 230 236 255 274 307 327 14 27 323 289 10 0 350 348 345 350 338 278 204 211 194 166 165 159 178 203 205 220 239 351 60 158 176 165 166 162 158 165 171 173
345 342 339 336 334 329 320 313 311 309 305 301 299 299 297 294 290 279 280 289 291 297 297 303 311 310 320 331 332 260 252 29 64 71 110 133 146 146 149 143 143 158 182 194 196 210 210 216 226 251 274 265 317 338 347 349 302 279 332 344 340 343 338 332 328 232 213 232 179 148 164 187 207 203 183 221 237 222 104 133 162 160 161 161 159 168 176 177
345 343 341 337 336 333 325 317 313 309 305 303 301 301 300 293 285 273 273 279 282 291 288 302 310 307 332 336 299 249 221 61 47 119 135 147 154 153 153 149 156 171 194 206 206 214 215 221 230 270 269 282 345 329 336 326 268 262 321 329 330 328 340 342 329 236 215 236 130 171 194 200 201 171 205 229 228 197 177 145 155 162 161 165 167 171 177 179
346 342 340 337 336 333 326 319 312 310 308 305 303 304 303 291 281 267 262 267 270 282 287 295 295 307 343 318 277 253 145 45 24 161 143 154 163 164 160 159 176 186 202 209 212 221 218 221 230 287 290 317 330 311 330 319 312 358 320 321 322 320 344 7 322 216 209 192 182 211 220 194 160 218 236 225 214 186 178 162 158 167 167 172 172 169 176 180
347 343 339 337 334 329 326 319 313 310 306 304 304 305 304 289 276 261 253 253 257 272 277 278 276 317 330 291 266 237 86 45 63 146 147 160 166 167 172 176 181 193 200 196 206 215 220 261 291 323 294 288 288 298 312 312 333 334 313 313 307 305 342 349 290 194 212 194 205 241 252 178 160 226 237 185 181 179 179 171 163 173 174 176 175 167 174 181
347 343 338 335 331 326 322 319 313 305 302 301 300 302 301 287 270 257 248 241 245 260 256 254 216 261 305 280 265 221 78 44 68 140 149 157 165 172 183 183 186 203 201 197 202 204 227 352 359 278 275 291 285 280 288 328 321 315 310 310 298 274 237 315 280 173 208 189 193 251 264 193 177 230 224 125 154 176 184 174 167 182 178 175 177 167 172 181
346 343 338 332 327 322 316 316 312 301 296 292 292 300 297 282 265 250 242 237 233 234 228 218 191 86 300 263 257 5 51 14 49 138 148 156 172 183 185 181 194 207 202 202 193 197 245 326 293 264 295 334 291 284 326 332 303 301 298 305 302 266 170 155 125 160 214 165 155 249 255 200 194 213 160 132 154 173 185 176 172 186 180 176 178 170 172 179
345 342 337 330 323 317 311 310 307 300 292 285 288 298 292 276 255 237 232 230 201 196 203 201 168 91 281 260 156 16 315 337 72 139 153 163 171 170 167 173 185 197 204 175 149 184 236 274 285 283 317 296 288 323 319 286 280 289 276 288 301 268 161 171 170 162 204 137 128 253 282 140 183 182 145 146 161 171 181 181 180 185 179 178 179 175 174 176
344 341 337 332 322 314 307 304 303 299 291 283 283 291 287 255 232 213 211 198 160 163 166 162 139 163 264 273 92 271 285 112 160 160 165 172 168 151 146 168 175 182 207 135 92 157 227 265 273 270 275 270 298 317 291 270 253 280 272 243 277 274 127 152 161 159 195 133 157 243 298 66 142 158 146 155 169 175 181 182 185 183 179 181 181 182 177 177
344 341 338 334 324 313 306 305 305 297 288 279 276 281 261 223 202 183 185 167 148 143 128 128 156 232 260 232 130 260 269 183 188 177 176 181 183 165 144 169 178 178 204 219 212 206 242 260 257 258 254 253 280 283 281 272 236 267 274 227 243 310 82 124 134 152 268 125 178 232 296 72 131 139 147 162 177 184 187 183 185 186 184 184 183 187 184 179
346 342 339 337 329 316 307 306 305 295 280 265 261 255 205 189 170 163 158 147 139 124 112 130 190 245 277 173 125 188 201 186 174 168 180 194 199 155 129 155 162 174 192 201 214 210 232 246 252 283 279 260 263 271 278 264 216 202 261 290 359 334 342 101 131 150 241 261 200 221 290 332 114 132 153 170 182 190 194 187 185 190 190 188 188 191 189 183
347 343 341 338 332 322 312 307 303 291 266 246 229 176 145 148 154 141 129 133 121 111 132 283 230 248 274 101 153 182 170 161 144 150 174 193 196 149 139 153 148 160 173 173 193 198 208 226 233 246 247 250 262 272 262 245 203 171 255 310 355 331 325 336 126 145 195 262 245 220 251 292 329 140 159 174 186 196 199 194 189 191 195 193 194 195 191 188
348 345 342 339 335 327 318 311 306 286 250 207 162 141 122 121 126 119 119 122 107 117 213 247 246 254 221 183 182 127 115 121 129 139 159 169 178 172 163 167 168 169 173 176 188 200 204 205 232 247 231 227 233 245 253 319 359 329 325 324 321 322 319 328 24 102 222 270 266 244 247 275 268 163 172 179 186 200 204 199 193 193 199 197 198 202 196 192
349 346 343 340 339 331 324 318 312 271 181 142 129 122 114 111 111 124 157 161 176 214 222 172 205 283 116 140 115 76 86 119 142 151 155 159 173 187 193 216 224 206 201 193 178 195 225 214 218 240 230 208 212 252 297 352 344 317 317 308 309 316 311 334 17 62 335 298 267 265 273 284 284 186 186 186 187 203 209 202 198 197 201 201 202 205 201 198
350 347 343 342 344 338 334 333 340 146 154 141 134 132 134 146 158 162 176 205 231 269 338 155 217 280 93 113 78 53 125 157 176 165 156 163 172 180 192 209 214 215 226 216 149 165 249 242 221 233 329 57 359 305 310 325 315 299 297 292 298 303 299 344 34 72 359 308 293 300 292 293 301 223 187 190 193 204 211 204 201 201 202 206 206 206 205 201
350 348 343 345 348 345 355 4 150 156 162 154 159 195 257 317 265 120 164 210 222 249 271 276 281 283 287 351 353 348 174 174 175 156 152 167 181 184 177 196 216 202 187 209 128 167 240 242 189 64 24 7 327 316 303 290 279 278 286 294 291 289 306 346 32 72 101 286 309 336 299 304 337 269 181 188 199 206 215 211 206 207 207 210 211 210 208 200
350 348 343 348 349 353 21 41 164 167 168 165 191 247 326 7 9 23 333 231 192 216 246 247 271 272 267 262 268 290 248 183 163 155 154 172 192 197 166 192 227 188 137 199 216 187 212 219 95 69 6 332 303 298 278 268 266 268 271 281 280 317 318 296 111 118 165 260 324 335 308 347 42 37 150 187 213 214 226 227 225 223 216 215 215 215 211 204
350 348 342 346 346 355 41 64 142 170 175 181 223 255 330 23 323 322 299 276 147 159 216 217 237 244 227 225 202 211 220 180 165 160 164 185 193 207 196 195 220 181 166 209 229 211 192 109 78 53 322 293 275 242 248 252 245 253 268 272 277 6 327 276 118 178 235 253 306 309 306 30 54 70 110 147 235 231 265 254 252 252 241 232 225 220 215 210
349 346 339 339 339 323 48 65 132 180 189 212 248 255 262 279 289 286 274 279 134 136 177 196 244 246 212 153 174 198 207 164 170 157 168 194 178 175 216 204 212 205 194 215 256 266 294 59 53 285 268 277 265 218 237 255 236 216 247 288 307 343 328 322 338 307 272 228 270 294 295 74 39 32 75 106 172 196 254 262 260 258 257 253 244 234 223 217
346 344 336 324 320 257 253 203 173 194 201 225 253 247 242 273 286 266 252 250 148 127 151 166 214 225 156 132 174 201 199 151 154 144 168 201 185 161 198 207 232 208 164 215 252 259 303 62 23 255 233 256 261 242 233 271 274 208 154 327 322 324 320 313 315 310 289 192 183 317 314 114 49 28 41 76 101 106 169 257 285 263 253 251 247 242 229 221
343 341 331 300 263 203 210 185 170 192 208 217 248 232 248 279 264 219 245 236 149 126 156 168 179 163 152 162 167 196 200 154 87 124 166 200 207 220 222 168 226 246 121 248 261 261 110 112 227 264 270 255 252 249 203 253 275 248 88 11 313 310 310 308 310 303 299 335 67 347 311 150 80 42 29 51 81 79 84 60 25 347 267 251 246 246 236 225
339 336 323 273 195 186 192 64 164 199 216 181 284 283 284 272 199 182 242 210 139 117 155 150 128 141 142 159 166 205 188 128 113 149 175 199 193 230 244 176 196 222 170 256 248 156 154 195 212 258 285 266 253 246 146 232 269 3 59 334 293 306 307 309 304 291 309 325 97 56 321 236 77 35 7 26 68 61 47 40 39 27 355 285 252 244 236 230
336 331 317 261 202 206 225 269 211 232 308 27 316 302 280 190 168 193 254 172 110 121 158 111 85 142 124 153 189 248 86 125 158 154 161 199 194 223 241 222 261 235 206 269 275 104 119 294 326 312 283 266 282 16 75 243 266 4 32 290 290 303 300 306 295 289 333 291 153 71 314 235 84 57 5 30 40 35 24 21 26 21 17 7 289 249 234 231
332 325 312 249 209 217 226 230 241 249 272 321 319 313 169 169 178 246 254 127 102 202 144 107 142 169 159 162 193 218 117 142 218 127 147 190 208 245 264 261 289 277 227 261 296 29 22 352 343 313 290 307 352 7 332 243 259 7 336 273 265 262 267 289 285 301 358 269 357 20 263 227 85 73 2 25 25 16 12 13 17 17 19 21 11 330 251 228
329 319 298 222 199 210 220 230 238 227 237 310 339 143 169 180 227 239 186 110 144 152 131 158 162 158 167 172 181 196 177 87 87 136 158 182 194 222 277 284 262 268 230 229 262 314 18 75 41 300 326 340 322 290 247 254 270 299 282 266 244 221 244 282 271 307 264 223 16 9 241 259 106 92 10 22 27 10 6 9 12 15 20 24 23 16 4 356
326 311 266 206 191 194 208 219 208 204 243 316 130 172 201 220 245 236 117 94 160 143 157 177 156 162 181 185 169 176 193 130 131 165 170 173 185 200 227 208 215 241 218 205 203 172 153 163 144 84 14 344 287 236 213 236 250 257 263 270 255 216 227 250 215 241 258 157 40 73 176 294 72 96 30 32 39 21 14 10 10 14 20 26 27 25 25 24
322 301 248 212 203 203 212 175 158 187 262 272 184 207 243 225 217 130 108 159 182 152 170 164 158 175 184 195 165 162 185 160 159 192 182 181 187 189 217 218 214 215 196 177 166 159 149 125 98 132 125 352 306 231 188 194 212 232 245 267 274 254 237 244 226 244 273 82 92 172 208 9 80 78 37 39 40 29 27 20 17 18 20 28 32 31 31 29
322 295 234 212 208 208 216 205 184 230 291 228 210 234 258 224 148 83 122 170 135 126 154 148 159 175 178 186 162 158 180 153 162 192 185 201 201 174 186 282 310 283 227 141 184 184 153 117 77 140 146 353 332 304 192 181 214 265 292 303 289 278 265 260 251 254 272 110 120 137 260 172 118 74 35 45 43 34 33 26 24 23 22 29 33 32 35 35
334 296 215 211 215 216 223 225 228 256 254 225 232 244 248 193 108 98 140 112 98 125 146 149 156 168 181 178 150 166 190 137 159 187 174 197 205 169 160 171 255 278 271 235 206 246 184 124 57 25 32 354 358 13 356 329 322 7 349 309 290 301 301 288 288 293 296 296 133 150 236 205 136 97 47 50 46 39 35 28 28 26 25 28 30 30 29 29
11 92 134 186 220 228 232 234 230 236 238 238 246 245 238 121 110 145 106 92 121 147 146 162 165 166 173 153 143 184 245 131 171 194 179 191 184 136 156 128 179 245 254 248 163 274 302 99 71 36 10 346 360 24 345 308 295 28 327 289 301 342 312 297 307 323 316 296 233 171 220 53 112 113 69 49 40 37 30 26 27 24 24 24 26 27 22 22
93 91 93 100 27 244 236 235 220 219 239 250 249 229 88 62 51 34 59 59 181 151 151 165 178 174 163 149 156 179 237 162 179 183 141 130 89 68 35 42 20 251 262 287 155 186 236 114 101 232 189 14 352 347 337 327 317 313 287 288 25 357 303 297 285 281 286 277 268 174 154 110 139 135 56 36 31 30 24 22 23 20 21 21 22 22 18 18
133 109 102 87 352 281 248 220 196 202 232 255 267 50 63 44 20 12 25 331 266 166 170 162 175 205 164 158 161 168 177 174 187 193 155 154 117 49 29 51 23 289 286 303 351 22 296 145 122 268 219 80 1 273 267 351 329 305 315 35 51 269 266 292 281 259 266 266 267 206 206 149 170 185 32 25 23 24 19 18 21 20 21 22 21 19 17 17
198 191 108 49 8 314 185 166 176 202 239 249 167 89 34 44 37 6 354 320 217 220 220 154 125 255 183 165 150 156 181 179 179 189 164 162 143 24 352 64 56 6 305 283 262 52 313 228 138 123 330 26 308 260 231 116 29 335 344 5 253 266 254 250 274 282 279 273 279 209 183 136 58 7 20 18 18 18 15 17 19 21 22 21 20 18 17 17
210 207 118 42 44 84 106 145 192 235 247 234 133 115 46 60 60 25 8 301 255 239 244 89 99 233 199 166 140 150 192 194 170 179 178 162 130 37 359 352 54 43 10 271 277 55 312 289 150 131 327 289 276 315 321 1 56 158 241 221 225 288 290 283 285 287 283 281 288 254 197 119 44 29 25 23 23 18 15 20 20 20 23 23 22 19 18 17
219 224 102 68 72 61 23 245 236 248 231 178 85 94 64 62 62 47 43 348 314 336 13 78 103 141 120 115 136 150 190 198 170 182 181 114 120 82 40 358 334 25 61 223 264 351 244 286 291 152 201 255 309 29 7 355 353 312 282 289 324 294 281 280 271 263 276 280 282 274 254 96 61 38 32 30 29 23 21 26 26 25 26 26 25 23 20 18
227 225 99 134 341 356 317 249 230 252 186 117 80 73 51 16 41 52 44 37 46 36 35 57 63 79 107 108 125 144 167 168 164 177 157 128 163 91 50 4 321 334 307 199 170 354 280 283 295 284 272 302 64 52 13 3 1 344 339 356 340 312 296 274 258 234 265 278 286 286 275 94 71 35 44 38 30 33 32 32 32 31 30 29 28 26 24 20
228 170 97 157 281 329 292 231 175 261 158 108 82 54 39 336 7 44 36 35 55 51 42 51 47 50 66 53 90 138 156 152 162 175 131 94 57 52 37 1 321 290 286 208 99 35 322 291 294 317 6 41 81 80 17 0 351 343 15 13 335 319 326 299 296 329 297 281 296 284 268 101 75 42 52 40 29 36 33 30 29 30 30 29 26 24 23 21
207 78 100 174 292 306 277 197 149 171 92 96 100 61 51 31 30 44 38 30 45 50 52 53 34 33 43 29 64 146 128 94 142 123 111 107 82 55 25 2 334 272 272 239 109 89 278 269 291 288 155 134 144 147 146 195 261 251 57 23 347 339 344 316 318 332 298 292 309 281 265 105 92 71 62 46 32 25 17 15 13 16 21 18 18 18 18 17
81 82 123 179 284 279 268 184 153 139 105 113 119 95 79 60 38 39 42 37 38 48 64 67 41 34 40 17 26 87 27 346 139 116 107 122 105 65 24 9 348 304 331 2 48 80 266 272 299 283 264 210 194 189 174 179 224 347 39 19 357 346 333 307 299 290 276 320 337 293 287 95 113 108 61 57 41 18 9 11 7 9 12 8 6 6 7 10
119 130 130 145 237 255 287 1 150 135 125 128 113 97 99 86 50 35 47 49 45 40 61 79 45 28 49 42 72 77 13 334 128 151 159 133 121 96 41 18 5 24 38 10 341 304 307 8 325 291 293 297 291 322 70 170 118 76 37 18 5 352 339 316 290 269 279 359 345 300 329 91 133 153 18 28 28 11 360 1 3 1 358 356 353 349 351 359
206 169 141 159 185 233 76 17 315 141 135 135 112 84 89 107 92 43 37 51 52 43 53 70 39 312 71 76 143 103 53 15 74 153 155 134 124 98 50 27 35 48 41 350 318 284 196 68 26 304 305 318 354 47 31 333 322 54 35 21 14 1 344 320 292 290 325 331 315 11 9 338 184 41 353 351 2 2 352 355 4 2 353 351 344 336 337 343
280 220 99 157 162 137 145 143 156 129 110 94 113 80 82 109 114 61 38 41 46 41 51 62 43 15 26 355 233 108 79 78 98 123 125 103 117 112 98 73 54 38 333 260 289 279 237 142 112 97 67 55 71 76 58 16 26 36 19 16 21 17 6 3 0 357 340 306 304 49 4 312 337 11 352 353 359 357 357 1 9 10 6 5 352 340 342 344
346 5 35 336 272 139 137 115 81 116 99 63 70 133 124 114 106 76 62 60 50 23 359 68 55 36 33 4 296 176 118 136 126 121 109 68 119 150 155 132 75 23 267 203 110 284 274 231 126 124 103 93 90 89 83 82 81 70 52 42 39 34 31 44 47 24 358 330 352 33 348 328 5 9 355 2 356 348 353 356 358 359 2 8 7 6 8 6
10 91 69 316 313 46 59 61 98 127 103 85 87 104 128 112 97 76 44 42 76 35 356 37 62 38 39 22 314 262 100 110 120 109 83 55 64 232 196 143 90 42 319 131 99 306 287 135 141 146 120 107 103 104 109 116 115 108 97 80 68 63 56 58 60 46 35 27 24 17 332 354 23 5 355 358 347 340 345 349 354 353 355 1 3 10 19 15
358 30 22 269 100 58 52 95 179 159 121 109 127 101 99 104 102 94 47 9 43 55 16 51 77 44 40 46 31 77 61 18 42 74 44 358 55 348 343 49 39 34 43 107 113 187 264 193 158 165 144 126 126 132 138 139 126 117 113 104 95 86 67 59 50 28 15 29 18 325 286 345 29 4 349 347 340 338 342 350 355 352 353 359 357 360 9 7
340 347 323 287 99 32 355 106 183 185 138 119 130 119 121 105 97 99 77 34 24 49 47 80 98 69 49 67 60 61 56 22 31 53 31 8 28 19 15 20 352 343 68 93 128 200 223 169 167 205 218 155 151 167 162 151 159 156 129 98 72 53 49 55 47 17 356 343 324 293 285 339 9 351 339 340 340 341 345 349 349 346 350 355 354 355 358 358
337 277 294 280 160 19 310 141 181 211 127 67 71 97 114 111 106 102 88 63 46 49 48 60 94 8 62 76 43 17 9 356 17 39 34 26 48 51 39 45 6 330 21 97 135 182 183 167 171 223 252 156 156 176 172 192 238 213 127 80 59 66 64 72 70 39 11 335 315 313 336 353 346 336 337 340 339 339 342 339 336 335 339 347 353 351 350 351